Wind_Speed
21 21 20 20 20 20 21 21 21 21 22 22 22 23 23 23 23 24 24 25 25 26 27 27 27 28 28 28 29 29 30 31 31 32 32 32 32 33 33 33 32 32 32 31 31 30 30 30 31 31 31 31 31 32 32 32 32 33 34 35 36 37 38 38 38 39 39 39 40 40 41 41 42 42
20 19 18 18 18 17 18 18 18 19 19 18 19 19 19 19 20 21 21 22 23 23 24 24 24 25 25 26 27 28 28 29 29 30 30 30 31 31 31 31 31 30 30 30 29 29 29 29 30 30 30 30 30 30 30 30 30 31 31 32 32 34 35 36 36 36 37 37 37 37 37 37 38 38
18 17 17 16 16 15 15 16 16 16 16 16 16 16 17 17 17 18 18 19 20 20 20 20 21 22 23 24 25 26 27 27 28 28 28 29 29 29 30 30 29 28 28 27 27 27 28 28 29 30 30 30 30 30 30 30 29 30 30 30 30 30 31 32 33 33 34 34 34 34 34 35 35 35
16 16 15 15 14 14 14 13 13 13 13 14 14 15 15 15 15 15 15 16 16 16 17 17 18 19 20 21 22 24 25 26 26 27 27 27 28 28 28 28 28 27 25 25 26 27 27 28 28 29 30 31 31 31 30 30 30 30 30 29 29 29 29 29 29 30 30 31 32 32 32 32 32 32
13 14 14 13 13 12 12 11 10 10 10 10 10 11 12 12 12 12 12 13 13 14 14 15 16 17 18 19 20 22 23 24 25 25 25 26 26 27 27 26 25 24 24 25 26 27 28 28 28 29 30 31 31 31 31 31 31 31 30 30 30 29 29 28 28 28 28 28 29 29 30 30 30 30
11 11 11 11 11 10 10 9 8 7 7 7 7 7 8 8 9 9 9 10 10 11 12 13 14 15 16 17 19 20 22 23 24 24 24 24 25 25 24 23 22 22 24 25 27 28 29 29 29 29 30 30 31 31 31 32 32 32 31 31 30 30 29 29 29 28 28 27 26 26 27 27 28 28
8 8 8 8 8 8 8 7 6 6 5 5 5 5 5 5 5 6 6 7 8 9 10 11 12 13 14 15 17 18 20 21 22 22 22 22 22 22 21 21 21 23 24 26 27 28 29 29 29 29 29 30 30 31 31 32 32 33 33 32 31 31 30 30 30 29 29 28 28 27 26 25 25 26
5 5 5 5 6 6 5 5 4 4 4 3 3 3 3 3 3 3 4 4 5 7 8 9 10 12 13 14 15 17 18 19 20 19 19 19 19 19 19 19 21 22 24 25 26 27 28 28 28 28 28 28 29 29 30 30 31 32 33 33 32 32 31 31 31 31 30 30 29 29 28 27 26 25
3 2 2 2 3 3 4 4 4 3 3 3 2 2 1 0 0 1 2 3 4 6 7 9 10 11 12 13 14 15 16 17 17 16 16 16 16 16 17 18 20 21 23 25 27 28 29 29 29 29 29 29 29 29 29 29 29 30 31 31 31 31 31 31 31 31 31 31 31 30 30 29 28 27
3 2 1 1 1 2 3 5 5 6 6 5 5 4 4 4 4 4 4 5 6 7 8 9 10 11 11 11 12 13 13 13 13 13 13 13 14 14 15 17 19 21 22 24 25 26 27 27 27 27 28 29 29 29 29 29 29 29 30 30 31 31 31 31 31 31 31 30 30 30 29 29 29 28
5 4 3 3 3 3 3 5 6 7 8 8 9 8 8 8 7 7 7 7 8 9 10 10 11 11 10 10 10 10 10 10 9 9 11 12 12 12 14 15 17 19 19 20 21 22 23 24 24 24 24 25 26 26 26 27 27 27 28 29 29 30 31 32 31 31 31 30 29 29 28 27 27 27
5 5 5 5 5 4 4 5 6 7 8 9 10 11 11 11 11 11 10 10 11 12 12 12 11 10 10 9 9 8 8 8 8 8 9 10 10 10 11 12 14 14 14 15 16 18 20 21 22 22 22 22 23 24 24 25 25 26 26 27 28 28 28 29 29 29 29 29 29 28 27 27 26 26
4 5 6 7 7 7 7 7 7 7 7 8 8 9 11 12 13 14 13 13 13 14 13 12 11 10 8 6 4 5 6 7 8 8 8 9 8 8 8 8 9 10 11 11 13 15 17 19 20 21 22 22 22 23 23 24 25 25 26 27 28 27 27 27 27 27 27 27 27 27 26 25 24 25
9 9 9 9 10 10 11 11 11 10 10 10 10 10 10 11 12 13 14 14 14 15 14 12 11 9 6 2 1 3 4 5 6 7 7 6 6 6 6 6 6 7 8 9 11 13 15 17 18 19 20 21 21 22 23 23 23 24 25 26 27 27 27 26 27 27 26 25 24 24 24 23 21 22
13 14 13 13 13 14 14 15 15 15 15 14 14 14 13 12 12 12 13 13 14 15 14 12 11 8 5 4 3 2 1 2 2 3 4 5 5 5 5 6 6 7 8 9 10 12 13 15 16 17 18 20 21 21 22 23 23 24 24 25 25 25 26 26 26 27 26 23 21 21 23 23 21 20
15 16 17 17 17 16 17 18 18 19 19 19 19 18 17 17 16 15 14 14 14 15 15 14 12 10 8 6 5 4 3 2 2 2 2 4 5 5 5 6 7 7 8 9 11 12 13 14 16 17 17 19 20 21 22 23 24 25 25 25 25 25 26 25 25 26 25 23 22 20 21 22 21 18
16 17 18 19 19 19 19 20 21 21 22 22 23 22 21 21 20 20 18 17 15 15 16 16 16 14 12 10 8 7 7 5 5 5 5 6 7 7 8 9 10 10 11 12 13 13 14 15 17 17 18 19 19 21 22 23 24 24 25 26 27 27 28 28 28 28 27 25 23 21 21 21 20 18
17 18 18 19 20 21 21 22 22 23 24 24 25 26 26 25 24 23 22 21 19 18 17 18 19 19 17 15 13 11 10 9 10 11 11 12 12 12 13 13 13 13 15 16 17 16 17 18 19 19 19 20 20 20 21 22 23 23 23 24 26 27 28 29 30 31 31 30 28 25 24 24 23 22
18 18 18 19 20 21 22 23 24 25 26 27 28 29 29 28 27 26 25 24 23 22 22 22 22 22 21 20 18 16 15 14 14 16 17 17 17 17 18 18 17 17 18 20 21 20 20 21 22 22 22 23 22 22 22 23 23 23 23 24 25 26 27 29 29 31 32 33 33 32 31 29 28 26
19 19 19 20 21 22 22 24 26 26 27 28 30 31 32 32 32 31 29 27 26 26 26 27 27 26 26 24 23 22 21 19 19 20 21 21 20 21 22 22 22 21 22 23 23 23 23 24 25 26 26 27 27 26 26 26 26 26 26 26 27 27 28 30 31 32 32 32 33 35 37 36 35 33
21 21 21 22 24 24 25 26 28 28 29 30 30 32 33 34 35 35 34 32 31 30 30 31 32 32 31 30 29 28 27 25 24 25 25 25 24 25 26 27 27 26 25 25 26 25 25 26 28 29 30 31 31 31 30 30 29 29 29 29 30 30 31 32 33 34 34 34 34 36 37 37 38 37
23 24 24 25 26 28 29 29 29 32 33 33 33 34 35 35 36 37 37 36 35 35 35 36 37 37 37 36 35 35 34 32 32 31 31 31 30 30 31 32 32 31 30 30 31 30 30 30 30 31 32 34 34 35 35 34 34 33 33 33 33 34 35 36 36 36 37 37 38 38 38 38 39 39
26 26 27 27 29 31 34 36 37 37 38 38 38 38 36 36 37 38 39 39 38 38 39 40 41 42 42 41 41 40 39 38 38 37 37 37 37 36 36 36 37 36 36 36 37 37 36 36 35 35 35 36 37 38 39 39 38 38 38 38 38 38 39 40 40 41 41 41 41 42 41 41 41 42
29 29 30 31 32 33 36 40 42 42 42 41 41 39 37 36 37 37 37 37 37 37 38 40 42 44 45 45 45 45 44 43 43 42 42 42 42 42 42 42 42 42 41 41 42 42 42 42 41 41 41 41 41 42 43 43 44 44 43 43 43 44 44 44 44 45 45 46 46 46 46 45 45 45
35 34 34 34 35 36 38 41 43 46 47 45 43 41 39 36 36 35 35 35 34 35 36 38 41 44 46 47 48 49 49 48 48 47 47 47 46 46 46 46 46 46 46 45 46 47 47 47 47 47 47 47 46 46 47 48 49 50 49 49 49 49 49 49 49 49 49 50 50 50 50 49 49 49
41 40 40 39 39 39 41 42 44 48 52 51 48 47 45 43 41 40 40 41 40 40 42 45 47 48 49 49 50 51 51 51 51 51 51 51 50 49 49 49 49 49 48 49 49 50 51 52 52 53 53 52 52 52 52 52 53 54 54 54 54 54 54 54 54 54 55 54 54 54 54 54 54 54
49 47 47 47 46 45 44 44 46 51 56 58 55 51 50 50 48 46 47 50 50 50 52 54 55 55 53 52 52 52 53 53 54 54 54 53 53 52 51 51 52 52 52 53 53 54 55 55 57 58 58 58 58 58 57 56 55 55 56 57 58 59 58 58 58 59 60 60 60 59 59 59 59 60
55 54 53 53 53 52 50 49 50 53 58 62 62 59 56 55 54 53 53 55 56 58 59 59 60 60 58 56 56 55 55 55 55 54 54 54 54 55 55 55 56 56 57 57 57 57 58 58 59 60 60 61 61 62 62 62 61 60 60 61 61 62 61 62 64 66 67 67 65 64 64 63 64 64
60 59 58 57 58 58 57 56 55 57 61 66 68 66 63 60 59 58 58 59 60 62 64 64 63 63 62 60 59 60 60 59 57 57 57 57 58 59 60 61 61 60 60 60 60 60 60 60 61 61 62 62 62 63 63 64 65 66 66 66 65 66 67 70 72 73 72 70 69 68 68 68 68 68
64 63 63 62 62 63 63 63 62 63 66 69 70 70 68 66 64 64 65 66 66 66 67 66 65 64 63 62 62 63 64 63 61 61 62 62 63 65 65 66 66 66 66 65 64 63 63 63 64 65 65 65 65 65 65 65 66 67 69 69 70 71 72 74 75 76 74 73 72 72 72 72 72 72
68 68 68 68 68 68 68 68 67 67 68 71 74 77 78 77 74 73 73 73 72 70 70 69 68 67 66 65 65 65 66 66 65 64 64 65 67 68 69 69 69 69 69 69 69 68 68 68 68 69 69 70 70 70 70 70 70 70 71 71 72 74 74 74 74 75 75 75 76 76 76 76 76 76
74 74 74 74 74 73 73 72 72 72 73 75 78 81 83 83 82 80 78 77 76 74 73 72 71 70 70 69 69 69 70 70 70 70 68 68 68 70 72 72 73 73 73 73 72 72 73 73 74 74 74 75 75 76 76 76 76 76 76 76 77 78 78 78 78 78 78 78 79 80 79 79 78 79
81 80 81 81 80 79 78 79 79 80 81 81 81 82 83 84 84 83 82 80 79 77 76 74 73 72 72 72 72 73 73 74 75 75 74 74 73 73 74 75 76 76 77 77 78 78 78 79 79 80 80 80 80 80 80 80 81 81 81 82 82 83 83 84 84 83 83 83 83 84 84 83 82 82
88 87 86 85 83 83 83 83 84 84 85 86 86 85 85 84 83 82 81 79 79 78 78 77 76 76 75 75 76 76 76 77 77 78 78 78 78 78 77 78 78 79 80 80 81 82 82 83 83 84 85 85 85 86 86 85 85 85 86 86 87 88 88 88 88 88 88 88 88 89 90 89 88 87
92 91 88 87 86 86 85 85 84 84 83 83 84 84 83 82 81 81 81 80 80 81 81 81 80 79 79 79 80 80 80 80 80 81 82 82 83 82 82 82 82 82 82 82 83 83 84 85 85 86 87 88 89 90 91 91 90 90 90 91 92 92 93 93 93 93 93 93 93 93 93 94 93 92
94 92 90 88 87 86 86 86 86 84 82 81 81 81 82 83 85 87 88 87 86 85 84 84 84 84 83 83 83 84 84 85 85 86 86 87 88 89 89 89 88 88 87 86 86 87 87 88 88 89 89 90 90 92 93 94 94 93 94 95 96 96 96 97 97 97 98 98 98 97 97 97 98 98
94 93 91 89 88 87 87 88 89 88 87 87 86 86 87 90 93 95 95 95 93 91 90 89 89 90 89 89 88 88 89 90 91 91 93 94 94 95 95 95 95 95 94 93 92 92 92 92 92 92 92 92 93 94 95 95 95 95 95 96 97 98 98 99 99 100 101 101 100 100 100 100 100 100
98 97 96 95 94 92 92 92 93 94 94 95 95 95 96 98 99 101 102 102 101 99 98 97 96 95 95 95 96 97 97 98 98 99 100 101 101 102 102 102 102 102 101 100 99 98 97 96 96 95 95 95 95 96 97 98 98 98 97 97 98 99 100 100 101 102 103 103 103 103 103 103 103 103
103 102 102 102 101 100 99 99 99 99 99 100 101 102 104 105 106 107 107 108 107 106 105 105 104 103 102 102 102 102 103 104 104 105 105 105 106 106 106 106 106 107 106 105 103 102 101 101 100 99 99 99 99 99 100 101 102 102 102 102 101 101 102 102 103 103 104 105 105 105 106 106 106 106
108 108 108 108 108 107 106 106 106 105 105 106 106 107 109 110 111 113 113 114 113 112 111 110 110 110 110 109 109 109 110 110 111 112 112 112 112 112 111 111 110 110 110 109 109 108 107 106 105 105 104 104 104 104 104 105 106 107 107 107 106 106 106 107 107 107 108 107 108 108 109 109 110 110
116 116 116 116 116 116 115 115 115 114 114 114 114 114 115 116 117 118 119 120 120 120 119 118 117 117 116 116 116 116 116 115 115 116 115 116 116 116 116 115 114 114 114 114 114 113 112 111 111 110 109 108 108 107 107 107 108 109 109 110 110 110 110 110 111 111 111 111 111 111 112 112 113 114
121 121 121 121 121 121 121 121 122 122 122 123 123 123 124 124 124 125 125 126 127 127 128 128 127 126 125 124 124 124 123 122 122 121 120 119 117 117 117 117 117 118 118 118 118 118 117 117 116 115 115 114 113 112 111 111 111 111 112 112 112 113 113 113 114 115 115 115 115 115 116 116 117 118
125 125 125 125 125 125 125 126 127 128 129 130 130 129 129 129 129 130 130 131 131 132 133 133 134 134 134 133 133 133 132 131 131 130 128 126 124 122 121 121 121 121 121 122 122 122 122 122 122 122 121 121 121 120 120 120 120 120 120 120 120 121 121 122 122 123 124 124 125 125 125 125 126 126
131 131 131 132 132 132 133 134 135 135 135 135 134 133 133 132 132 133 133 134 134 135 136 137 138 138 138 138 138 137 137 136 135 133 132 131 129 128 126 125 125 125 124 125 125 125 125 125 125 125 125 125 125 125 125 125 125 125 125 125 126 126 127 127 128 129 129 130 130 131 131 131 131 131
139 139 139 140 140 141 142 141 139 137 136 135 135 136 136 136 136 137 137 138 138 138 139 139 139 139 138 138 138 138 137 136 135 134 133 132 131 130 129 129 128 128 128 128 128 127 127 127 127 127 126 126 126 126 126 126 126 125 125 125 125 126 126 127 128 128 129 130 130 130 131 131 132 132
Wind_Direction
106 104 104 105 105 105 105 104 103 101 98 95 90 85 82 80 79 78 76 75 74 72 70 69 67 65 63 61 60 57 56 54 52 50 49 48 47 46 45 46 46 46 46 46 46 47 48 49 50 52 53 53 54 54 55 56 58 59 60 59 57 57 58 59 60 62 63 64 65 66 65 65 66 66
107 106 105 105 106 107 108 108 107 105 101 97 91 84 80 79 78 77 76 74 72 70 68 66 64 62 61 59 57 55 54 52 50 48 46 45 43 42 42 41 42 44 45 47 48 49 50 50 51 52 53 54 54 55 55 55 56 57 59 59 59 58 58 58 58 60 62 64 65 66 66 66 65 65
110 110 109 109 110 111 111 111 110 108 104 98 92 87 84 82 80 78 75 72 70 67 65 63 60 58 56 55 53 51 49 48 46 45 43 42 41 39 38 38 39 42 46 48 51 53 54 53 54 55 55 56 56 56 56 56 56 57 58 58 59 59 59 59 58 57 58 60 63 65 67 68 67 66
113 114 114 113 114 115 114 113 110 106 101 95 90 88 86 84 83 79 76 72 68 65 62 58 55 52 50 48 46 44 43 42 41 40 39 38 38 37 36 36 38 42 47 52 55 58 59 59 59 59 59 59 58 58 58 57 57 57 57 58 58 58 58 59 59 58 58 57 58 60 63 66 68 69
115 114 114 115 115 115 115 113 112 107 102 95 90 87 85 84 82 80 76 71 65 61 57 52 49 46 44 42 40 38 37 36 35 35 35 34 35 36 37 38 41 46 52 57 60 62 63 64 64 63 62 63 62 62 61 61 60 59 58 58 58 57 57 58 58 58 58 57 56 56 57 59 62 66
119 117 117 117 116 117 118 116 115 111 106 101 95 88 85 81 79 76 70 63 57 52 48 45 42 40 37 35 33 32 30 30 30 31 31 31 32 35 39 44 49 55 59 62 63 65 65 66 66 65 65 65 65 65 65 65 64 63 62 60 59 58 57 57 57 57 57 57 56 56 56 55 56 57
130 130 126 122 120 121 122 123 123 120 115 109 103 94 89 82 75 68 60 52 48 43 38 34 32 30 28 26 25 24 23 24 25 27 29 30 33 37 46 55 60 62 63 64 64 63 63 63 64 64 64 64 64 65 66 66 67 67 66 65 63 61 59 58 57 57 56 55 55 55 55 54 55 54
137 145 146 142 138 137 137 138 141 141 139 132 121 107 94 86 75 62 49 38 33 28 23 18 14 13 13 14 14 14 15 17 20 24 28 32 37 45 56 65 67 66 66 66 63 61 60 59 59 59 60 60 61 61 62 63 65 66 67 67 66 65 64 63 61 61 59 58 56 55 54 53 53 53
98 119 147 164 173 179 185 191 197 197 193 193 199 204 209 228 349 3 5 3 1 357 355 353 352 354 356 359 1 4 6 10 14 21 31 39 47 56 67 73 73 72 72 71 67 62 59 57 57 57 57 57 58 58 58 59 60 61 61 62 63 63 62 62 62 62 61 61 60 58 57 55 54 53
74 60 34 344 294 262 244 238 236 238 238 239 243 247 254 264 273 285 300 311 316 321 325 328 331 336 342 347 353 358 3 9 15 24 38 50 57 65 73 79 80 80 79 76 69 61 57 55 54 54 53 54 55 56 56 56 57 57 57 58 58 59 59 59 58 58 58 58 58 58 57 57 56 55
60 52 39 18 353 319 291 275 265 259 255 252 253 256 260 266 274 280 287 292 295 299 304 308 315 323 332 342 351 358 7 20 34 45 56 63 68 73 77 81 82 81 80 75 67 56 50 47 47 48 48 48 49 49 49 49 50 51 51 51 53 55 55 54 52 52 53 53 53 54 54 55 54 54
31 27 21 13 8 359 336 314 301 290 282 274 267 264 264 266 270 274 279 283 285 289 292 296 302 310 320 334 350 5 19 39 56 67 72 74 77 80 81 82 80 75 71 67 58 47 39 35 36 39 40 41 41 41 40 40 41 41 40 41 43 45 46 45 44 45 48 48 48 48 48 49 50 51
329 337 338 338 340 342 339 335 330 326 320 311 299 287 280 277 276 277 278 281 284 285 286 288 290 294 303 318 349 32 50 58 65 72 77 78 78 79 79 79 77 68 60 53 43 33 27 24 26 29 31 33 33 33 33 32 32 32 31 32 33 35 36 37 36 37 40 43 44 42 41 41 44 46
299 301 303 306 309 314 316 318 321 326 330 331 328 320 307 296 290 288 287 286 285 284 283 280 277 275 272 261 94 77 73 70 68 67 65 60 56 57 55 52 50 46 41 36 26 18 14 14 17 19 20 21 22 21 21 21 21 22 22 22 23 25 26 26 25 24 28 35 38 37 34 33 36 38
293 293 292 292 293 296 299 302 306 311 315 319 324 325 322 316 309 303 298 293 288 285 280 270 260 254 233 185 154 137 112 83 62 50 38 25 19 19 21 19 15 12 11 9 5 1 359 360 3 6 6 7 8 8 8 8 8 9 10 11 12 13 14 15 14 13 15 19 23 24 26 29 31 28
283 285 285 287 288 289 290 292 296 300 303 306 309 313 316 317 316 313 308 300 292 288 281 268 256 246 227 203 190 194 207 241 292 300 313 330 330 328 333 344 345 343 346 346 344 344 342 343 347 349 350 352 354 355 356 358 358 358 359 359 359 360 360 1 1 1 1 3 5 8 13 20 28 28
286 283 282 282 285 287 287 288 290 293 295 297 299 301 303 306 309 309 307 302 295 290 282 272 262 252 236 225 220 217 223 245 268 272 275 290 297 294 302 316 320 321 327 332 334 334 332 333 335 337 337 338 340 341 344 347 349 349 348 348 349 349 349 349 349 348 348 348 350 354 357 1 11 16
296 292 287 283 283 282 283 284 285 288 290 292 293 293 294 295 296 298 299 298 295 291 285 277 269 260 247 239 236 234 234 245 264 274 281 288 291 289 291 298 302 305 312 319 323 324 324 325 327 329 328 329 330 330 331 334 338 338 337 337 338 339 339 340 340 339 339 338 338 341 343 345 347 351
298 296 293 289 284 281 282 283 282 283 285 287 288 288 287 287 287 286 287 290 290 290 288 282 275 267 259 251 247 247 246 249 259 271 279 285 289 289 289 292 295 296 301 308 312 314 313 314 317 320 321 321 321 321 321 323 326 326 325 325 326 327 329 330 331 332 332 332 331 332 333 334 334 334
295 296 295 290 283 280 279 279 279 280 282 284 284 284 283 282 282 281 281 281 282 284 285 284 280 274 268 262 258 258 259 258 260 265 271 276 282 284 284 286 289 290 294 298 302 304 304 304 307 311 313 314 313 312 312 314 317 317 316 315 315 316 319 321 323 325 326 326 326 327 327 327 327 327
291 291 293 290 285 281 277 272 272 277 282 284 284 282 280 278 278 279 279 278 278 279 279 280 280 278 275 271 269 267 267 267 266 267 268 271 275 277 278 280 283 284 285 287 290 292 293 294 296 300 305 307 306 305 305 306 308 309 309 308 307 307 309 312 314 317 319 320 320 321 322 321 321 320
285 286 288 287 284 284 284 280 276 277 280 283 285 285 281 277 276 276 276 277 277 278 278 278 278 277 277 276 275 275 274 273 272 271 271 271 272 273 274 276 279 280 280 280 282 284 286 287 288 290 293 296 297 297 299 300 302 303 303 302 302 302 304 307 308 310 311 312 313 314 315 315 315 314
279 283 285 284 283 284 286 286 284 282 282 285 288 286 282 279 278 277 276 275 275 276 278 278 278 278 278 277 278 277 276 276 275 273 273 273 273 273 272 273 274 276 278 279 279 281 283 284 284 284 285 286 288 289 291 294 295 296 298 298 299 300 301 303 304 304 305 306 307 308 308 308 308 308
274 278 280 282 283 284 284 284 284 284 285 285 285 283 280 281 282 280 278 275 275 278 280 280 280 279 279 279 279 278 278 277 275 274 274 274 274 274 274 275 275 277 278 280 281 282 283 283 282 282 282 282 283 284 286 288 290 291 292 294 296 297 298 299 300 301 302 302 303 303 303 303 303 303
268 273 276 279 280 280 279 280 282 284 284 282 279 276 275 278 282 285 283 278 276 279 285 287 286 284 282 281 280 280 279 279 278 277 276 275 275 275 276 277 277 279 281 282 283 284 284 284 283 282 282 282 281 281 282 283 285 286 288 290 292 294 295 296 297 297 298 298 298 299 299 299 299 299
265 269 272 274 276 277 277 279 280 282 281 279 276 273 271 274 278 280 281 280 278 279 282 286 288 287 285 284 282 281 281 281 281 280 279 279 279 278 278 279 280 281 282 283 283 284 285 285 285 284 284 283 283 283 283 283 283 283 285 287 290 291 292 293 294 295 295 295 295 294 295 295 296 296
265 266 268 270 272 274 276 277 277 277 277 276 274 272 271 274 275 273 273 275 278 279 280 282 283 284 284 284 283 282 283 284 284 282 281 281 281 281 281 282 282 283 283 283 282 283 283 284 284 284 285 285 285 286 285 284 283 281 281 283 286 287 289 290 291 292 293 293 292 292 292 293 294 295
265 264 265 267 269 271 274 276 276 275 275 274 274 274 273 274 274 272 271 272 275 277 279 280 281 282 282 282 282 282 283 283 284 283 282 281 280 281 282 283 284 283 283 282 281 281 281 281 282 283 283 284 284 285 285 284 283 282 280 281 283 284 286 287 289 291 291 290 290 289 290 290 291 292
264 263 264 266 268 270 271 273 274 275 273 273 274 273 272 272 273 272 272 272 274 275 276 277 278 279 281 282 282 282 282 281 281 281 281 280 279 279 280 282 283 282 282 282 281 281 280 280 280 281 282 282 282 282 282 282 282 281 281 280 280 281 283 285 288 289 289 288 288 287 287 287 288 289
264 264 265 267 269 271 271 271 273 276 277 277 275 273 271 272 273 272 273 274 274 275 275 275 276 278 279 281 281 282 282 281 281 279 279 278 278 278 279 279 280 280 280 281 281 281 281 280 280 280 281 281 282 282 281 281 280 280 280 279 279 280 281 284 286 288 288 288 287 287 287 287 287 287
264 265 267 268 269 271 272 271 271 273 276 278 278 276 275 276 275 275 275 275 275 275 275 276 277 278 279 279 279 280 280 281 280 278 277 276 276 276 277 278 278 278 278 279 280 280 280 280 280 280 280 280 281 281 281 281 280 280 279 279 279 280 282 283 284 285 286 286 286 286 286 286 286 286
263 265 266 268 269 270 272 272 272 272 274 275 275 275 275 275 275 275 275 274 274 274 275 276 277 277 278 278 278 277 278 277 278 278 278 276 275 274 275 275 276 277 277 278 279 279 279 280 280 280 280 279 279 279 279 279 279 279 279 279 279 280 280 281 282 282 282 283 283 284 284 284 284 284
263 264 266 268 269 271 272 273 273 273 274 274 274 273 272 272 273 273 273 273 273 273 273 273 274 275 275 276 277 277 277 277 277 278 278 277 276 276 275 275 275 276 277 277 278 278 278 279 279 279 279 279 279 279 279 279 279 279 279 280 280 280 280 280 281 281 282 282 282 283 283 282 282 282
265 265 266 268 269 271 273 273 273 272 271 271 271 271 271 272 272 272 272 272 272 272 273 274 274 275 275 276 277 278 278 278 278 278 278 278 277 276 276 275 275 275 276 276 276 276 277 277 277 277 278 278 278 278 278 278 278 279 279 279 279 280 280 280 281 281 282 282 283 283 283 283 282 282
266 266 266 267 268 270 271 271 270 270 268 267 267 267 268 269 270 271 272 272 273 274 275 276 277 278 278 278 279 279 280 280 280 280 280 279 279 278 277 276 276 276 276 275 276 276 276 276 276 276 276 276 276 276 276 277 277 278 278 279 279 279 280 280 280 281 281 281 282 282 282 282 282 282
265 265 264 264 265 266 267 268 268 267 265 265 265 265 266 268 270 273 275 277 278 279 280 280 281 280 280 280 279 280 280 281 281 281 281 281 280 280 279 279 278 277 277 277 276 276 276 276 276 276 276 276 276 275 275 275 275 276 276 277 278 278 278 279 279 280 280 280 280 281 281 281 281 281
263 262 262 262 262 263 264 266 267 266 266 265 265 265 266 268 271 274 277 279 281 281 281 282 282 282 282 281 280 279 280 280 281 282 282 282 281 281 281 280 279 278 278 277 277 277 276 276 275 275 275 275 275 275 275 275 275 275 275 275 276 277 277 277 278 278 279 279 279 279 279 279 279 280
261 261 261 261 262 263 263 264 266 266 266 267 267 267 267 268 270 273 275 277 279 280 280 280 280 281 281 282 282 282 282 282 282 283 283 283 282 282 281 280 279 278 278 277 277 276 276 275 275 275 275 275 274 275 275 275 275 275 275 274 275 275 276 276 276 277 277 277 277 277 277 277 277 277
261 261 262 262 263 264 264 265 266 266 266 267 268 268 269 270 271 273 274 276 278 279 280 280 281 281 281 281 281 282 283 283 284 283 283 283 283 282 281 280 280 279 278 278 277 277 276 275 275 275 275 275 275 275 275 275 276 276 276 275 275 275 276 276 276 277 277 277 277 277 277 277 277 277
264 264 265 265 266 267 267 267 268 268 268 268 268 269 269 271 272 274 275 277 278 279 280 280 281 281 282 282 282 282 283 283 284 284 284 284 283 283 282 281 281 280 280 279 279 278 278 277 277 277 277 276 276 276 275 276 276 276 277 277 278 278 278 277 277 277 277 278 278 278 278 278 279 279
266 266 267 268 269 269 270 270 271 271 271 271 271 271 271 271 272 273 274 276 277 278 279 279 280 280 281 281 282 282 283 283 283 283 283 283 282 282 281 280 280 280 279 279 279 279 279 279 278 278 278 278 277 277 277 276 276 277 277 277 278 278 278 278 278 278 277 277 278 278 278 278 279 279
266 266 267 268 269 270 270 271 272 273 273 273 273 272 272 272 272 272 273 274 275 276 277 278 279 280 280 280 281 281 281 281 282 281 281 280 279 278 277 277 276 276 276 276 276 277 277 277 277 277 277 277 276 276 276 276 276 276 276 276 277 277 277 277 277 277 277 277 277 277 277 277 277 278
266 266 267 267 268 269 270 271 272 273 273 273 273 272 272 272 272 272 272 273 274 274 275 276 277 278 278 279 279 279 280 280 280 280 279 279 278 277 277 276 276 275 275 274 274 274 274 274 274 274 274 274 274 274 274 274 274 274 274 275 275 275 276 276 276 276 277 277 277 277 277 277 278 278
266 266 267 268 269 270 271 272 272 272 272 272 271 271 271 271 271 271 272 272 272 273 274 274 275 275 276 276 277 277 277 277 278 278 278 278 278 277 277 277 277 276 276 276 275 275 275 274 274 274 274 274 274 274 274 274 274 274 274 274 274 275 275 275 276 276 276 276 276 277 277 277 277 278
267 268 269 269 270 272 273 273 274 273 273 272 271 271 271 272 272 272 272 272 272 273 273 274 274 274 275 275 276 276 276 276 277 277 277 277 277 277 277 277 277 277 277 277 277 276 276 276 276 276 276 276 276 275 275 275 276 276 276 276 276 277 277 277 278 278 278 278 278 278 278 278 279 279
Height
11005 11005 11005 11005 11005 11005 11005 11004 11004 11004 11003 11003 11003 11002 11001 11001 11000 10999 10998 10997 10997 10996 10995 10994 10993 10993 10992 10991 10991 10990 10990 10989 10988 10987 10986 10985 10983 10982 10981 10979 10977 10976 10975 10974 10973 10972 10971 10969 10968 10966 10964 10963 10961 10960 10958 10957 10956 10954 10952 10951 10949 10947 10945 10944 10943 10941 10939 10937 10936 10935 10934 10933 10932 10930
11007 11007 11007 11007 11007 11007 11007 11006 11006 11006 11005 11005 11005 11005 11004 11003 11003 11002 11001 11000 10999 10999 10998 10997 10996 10995 10995 10994 10994 10993 10992 10991 10990 10989 10988 10987 10986 10985 10983 10982 10980 10979 10978 10977 10976 10975 10973 10972 10970 10969 10967 10966 10964 10963 10961 10960 10959 10957 10956 10954 10953 10951 10949 10948 10947 10946 10944 10943 10941 10940 10939 10938 10937 10936
11008 11009 11009 11009 11009 11009 11009 11008 11008 11008 11007 11007 11007 11006 11006 11005 11005 11004 11004 11003 11002 11001 11000 10999 10998 10998 10998 10997 10996 10995 10994 10993 10993 10992 10991 10990 10989 10987 10986 10984 10983 10982 10981 10980 10978 10977 10976 10974 10973 10971 10970 10968 10967 10966 10964 10963 10962 10960 10959 10957 10956 10955 10953 10952 10951 10950 10948 10947 10946 10944 10943 10942 10941 10941
11010 11010 11010 11010 11010 11010 11010 11010 11010 11010 11010 11009 11009 11008 11008 11007 11007 11006 11006 11005 11004 11003 11002 11001 11001 11000 11000 10999 10998 10998 10997 10996 10995 10994 10993 10992 10991 10989 10988 10987 10986 10985 10984 10982 10981 10979 10978 10976 10975 10974 10972 10971 10969 10968 10967 10966 10965 10963 10962 10960 10959 10958 10957 10955 10954 10953 10952 10951 10950 10948 10947 10946 10945 10945
11012 11012 11012 11012 11012 11012 11012 11012 11012 11011 11011 11011 11011 11010 11010 11010 11009 11008 11007 11007 11006 11005 11004 11003 11003 11002 11002 11001 11000 11000 10999 10998 10997 10996 10995 10994 10993 10992 10990 10989 10988 10987 10986 10985 10983 10982 10980 10979 10978 10976 10975 10973 10972 10971 10970 10969 10967 10966 10965 10963 10962 10961 10960 10959 10958 10957 10956 10955 10953 10952 10951 10950 10949 10948
11014 11014 11014 11014 11014 11014 11014 11013 11013 11013 11012 11012 11012 11012 11011 11011 11011 11010 11009 11008 11007 11007 11006 11005 11005 11004 11003 11003 11002 11001 11001 11000 10999 10998 10997 10996 10995 10994 10993 10992 10991 10990 10989 10987 10986 10984 10983 10981 10980 10979 10977 10976 10974 10973 10972 10971 10970 10968 10967 10965 10964 10963 10963 10962 10961 10960 10959 10958 10957 10956 10955 10954 10953 10952
11015 11015 11015 11016 11016 11016 11015 11015 11014 11014 11014 11013 11013 11013 11012 11012 11011 11011 11010 11010 11009 11008 11008 11007 11006 11005 11005 11004 11003 11003 11002 11001 11000 11000 10999 10998 10997 10996 10995 10994 10993 10992 10991 10990 10989 10987 10986 10984 10983 10982 10980 10979 10977 10976 10975 10974 10972 10971 10969 10968 10966 10966 10965 10964 10963 10962 10962 10961 10960 10959 10958 10957 10956 10955
11016 11016 11016 11016 11016 11016 11016 11016 11015 11015 11015 11014 11014 11014 11013 11013 11012 11012 11011 11011 11010 11009 11009 11008 11007 11006 11006 11005 11005 11004 11003 11002 11002 11001 11001 11000 10999 10998 10997 10996 10995 10994 10993 10992 10991 10990 10988 10987 10986 10985 10983 10982 10980 10979 10978 10977 10975 10973 10972 10970 10969 10968 10967 10966 10966 10965 10964 10963 10963 10962 10961 10961 10960 10959
11016 11016 11016 11016 11016 11016 11016 11016 11016 11016 11015 11015 11015 11014 11014 11014 11013 11012 11012 11011 11011 11010 11009 11009 11008 11007 11007 11006 11005 11005 11005 11004 11003 11002 11002 11001 11000 10999 10999 10998 10997 10996 10994 10993 10993 10992 10991 10990 10989 10987 10986 10985 10983 10982 10981 10980 10978 10976 10975 10973 10972 10971 10970 10969 10968 10967 10966 10966 10965 10964 10964 10963 10962 10962
11015 11015 11015 11015 11016 11016 11016 11015 11015 11015 11015 11015 11015 11014 11014 11014 11013 11013 11012 11012 11011 11011 11010 11009 11009 11008 11007 11007 11006 11006 11005 11005 11004 11003 11003 11002 11001 11000 11000 10999 10998 10997 10996 10995 10994 10994 10993 10992 10991 10990 10989 10987 10986 10985 10984 10982 10981 10979 10977 10976 10975 10974 10973 10972 10971 10970 10969 10968 10968 10967 10966 10966 10965 10964
11015 11015 11015 11015 11015 11015 11015 11015 11015 11014 11014 11014 11014 11014 11014 11014 11013 11013 11013 11012 11011 11011 11010 11010 11009 11009 11008 11007 11006 11006 11006 11005 11004 11004 11003 11002 11002 11001 11001 11000 10999 10998 10997 10996 10996 10995 10994 10994 10993 10992 10991 10990 10989 10987 10986 10984 10983 10981 10980 10978 10977 10976 10975 10974 10974 10973 10972 10971 10971 10970 10969 10968 10967 10967
11014 11014 11015 11015 11015 11015 11015 11015 11014 11014 11014 11014 11014 11013 11013 11013 11013 11013 11012 11012 11011 11011 11010 11010 11009 11008 11008 11007 11007 11006 11006 11006 11005 11004 11003 11003 11002 11002 11001 11000 11000 10999 10998 10997 10996 10996 10995 10995 10994 10993 10992 10991 10990 10989 10987 10986 10984 10983 10981 10980 10979 10978 10977 10977 10976 10975 10974 10973 10972 10972 10971 10970 10970 10969
11013 11014 11014 11014 11014 11014 11014 11014 11014 11014 11014 11013 11013 11013 11012 11012 11012 11012 11012 11011 11011 11010 11009 11009 11008 11008 11007 11007 11007 11007 11007 11006 11005 11005 11004 11003 11003 11002 11001 11001 11000 10999 10998 10998 10997 10996 10996 10995 10994 10994 10993 10992 10991 10990 10988 10987 10985 10984 10983 10982 10981 10980 10979 10978 10978 10977 10976 10975 10974 10973 10973 10972 10971 10971
11013 11013 11013 11013 11013 11013 11013 11013 11013 11013 11013 11013 11012 11012 11012 11011 11011 11011 11011 11010 11010 11009 11008 11008 11007 11007 11007 11006 11006 11006 11006 11006 11006 11005 11004 11004 11003 11002 11002 11001 11000 10999 10998 10998 10997 10997 10996 10995 10994 10994 10993 10992 10991 10990 10989 10987 10986 10985 10984 10983 10982 10981 10981 10980 10979 10978 10977 10976 10975 10974 10974 10973 10973 10973
11012 11012 11012 11012 11012 11012 11012 11012 11012 11012 11012 11011 11011 11011 11010 11010 11010 11010 11009 11009 11008 11008 11007 11007 11006 11006 11006 11006 11006 11006 11005 11005 11005 11005 11004 11004 11003 11002 11002 11001 11000 10999 10999 10998 10997 10996 10996 10995 10994 10993 10992 10991 10991 10990 10989 10988 10986 10985 10984 10983 10983 10982 10981 10980 10980 10978 10977 10976 10975 10974 10974 10975 10975 10975
11010 11010 11010 11010 11011 11011 11011 11011 11011 11011 11011 11010 11010 11010 11009 11009 11008 11008 11008 11007 11007 11007 11006 11006 11005 11005 11005 11005 11004 11004 11004 11004 11004 11004 11004 11003 11002 11001 11001 11000 10999 10999 10998 10998 10997 10996 10995 10994 10993 10993 10992 10991 10990 10989 10988 10987 10986 10985 10984 10983 10982 10982 10981 10980 10980 10979 10978 10976 10975 10974 10974 10975 10976 10976
11008 11009 11009 11009 11009 11009 11009 11009 11009 11009 11009 11009 11009 11009 11008 11008 11007 11006 11006 11006 11005 11005 11005 11004 11004 11004 11004 11003 11003 11003 11003 11002 11002 11002 11002 11001 11001 11000 10999 10999 10998 10997 10997 10997 10996 10995 10994 10993 10992 10991 10990 10989 10989 10988 10987 10986 10985 10984 10983 10982 10981 10981 10980 10980 10979 10978 10977 10976 10975 10974 10974 10974 10975 10975
11006 11006 11007 11007 11007 11007 11007 11007 11007 11007 11007 11007 11007 11007 11006 11006 11006 11005 11005 11004 11004 11003 11003 11003 11002 11002 11002 11002 11002 11001 11001 11000 11000 11000 11000 10999 10999 10998 10997 10996 10996 10995 10995 10995 10994 10994 10993 10992 10991 10990 10989 10988 10987 10986 10985 10985 10984 10983 10982 10981 10980 10979 10979 10978 10977 10976 10976 10975 10974 10974 10973 10973 10972 10972
11004 11004 11004 11004 11004 11004 11004 11004 11005 11005 11005 11004 11004 11004 11004 11004 11003 11003 11003 11002 11002 11002 11001 11001 11000 11000 11000 11000 11000 10999 10999 10999 10998 10998 10997 10997 10996 10995 10994 10994 10993 10993 10992 10992 10992 10992 10991 10990 10989 10988 10987 10986 10985 10984 10983 10983 10982 10981 10980 10979 10978 10978 10977 10976 10976 10975 10974 10973 10972 10972 10971 10971 10970 10969
11001 11001 11001 11001 11000 11000 11000 11001 11001 11001 11002 11002 11001 11001 11000 11000 11000 11000 11000 11000 11000 10999 10999 10998 10997 10997 10997 10998 10997 10997 10997 10997 10996 10995 10995 10994 10994 10993 10991 10991 10991 10991 10990 10989 10989 10989 10988 10987 10986 10986 10985 10984 10983 10982 10981 10980 10980 10979 10978 10977 10976 10975 10974 10974 10973 10973 10972 10972 10971 10970 10969 10968 10967 10966
10998 10998 10998 10998 10997 10996 10996 10997 10998 10998 10998 10998 10998 10997 10997 10996 10996 10996 10996 10996 10996 10996 10996 10995 10994 10994 10994 10995 10994 10994 10994 10994 10994 10993 10992 10992 10991 10990 10988 10987 10987 10988 10988 10986 10986 10986 10985 10984 10983 10982 10982 10981 10979 10978 10978 10977 10977 10976 10975 10974 10973 10972 10971 10971 10970 10970 10969 10969 10968 10968 10967 10966 10964 10963
10993 10994 10994 10995 10994 10993 10994 10994 10995 10995 10995 10994 10994 10994 10993 10992 10992 10992 10992 10992 10992 10992 10992 10991 10991 10990 10990 10991 10991 10990 10991 10991 10990 10990 10989 10989 10988 10987 10985 10984 10983 10984 10984 10983 10982 10982 10982 10981 10980 10979 10978 10977 10975 10974 10974 10974 10973 10972 10972 10970 10969 10968 10967 10967 10966 10966 10966 10965 10964 10964 10963 10962 10961 10960
10988 10989 10990 10990 10990 10990 10990 10991 10991 10991 10990 10990 10990 10990 10989 10988 10988 10987 10987 10987 10988 10988 10988 10987 10986 10986 10986 10986 10986 10986 10986 10986 10986 10985 10985 10984 10984 10983 10982 10980 10979 10979 10979 10979 10978 10978 10978 10977 10977 10976 10975 10973 10971 10970 10969 10969 10969 10968 10967 10966 10965 10964 10963 10962 10962 10961 10961 10961 10960 10959 10959 10958 10957 10955
10983 10984 10985 10985 10986 10987 10987 10986 10985 10985 10985 10986 10986 10985 10985 10984 10983 10983 10983 10983 10983 10983 10983 10982 10981 10980 10980 10980 10980 10980 10980 10980 10980 10980 10980 10979 10978 10978 10977 10976 10975 10974 10975 10974 10974 10973 10973 10972 10972 10972 10971 10970 10968 10966 10964 10964 10963 10963 10962 10961 10960 10959 10958 10957 10957 10956 10956 10955 10954 10954 10953 10953 10952 10951
10977 10978 10979 10980 10981 10982 10982 10982 10981 10980 10979 10980 10981 10980 10980 10979 10979 10979 10978 10978 10978 10977 10977 10977 10976 10975 10975 10975 10974 10974 10974 10974 10974 10974 10974 10973 10973 10973 10972 10971 10970 10969 10969 10969 10969 10968 10967 10967 10966 10965 10965 10964 10964 10962 10960 10959 10957 10956 10955 10955 10954 10953 10952 10952 10951 10950 10950 10949 10948 10947 10946 10945 10945 10945
10970 10971 10973 10974 10974 10976 10977 10978 10977 10974 10972 10972 10974 10974 10973 10974 10975 10975 10973 10972 10972 10972 10971 10971 10970 10970 10969 10969 10969 10968 10968 10969 10969 10969 10968 10967 10967 10967 10966 10965 10964 10963 10964 10963 10962 10961 10961 10960 10959 10958 10958 10957 10957 10956 10955 10954 10952 10950 10948 10947 10947 10946 10946 10945 10944 10944 10943 10942 10941 10940 10939 10938 10937 10937
10963 10964 10965 10967 10967 10968 10970 10972 10972 10969 10966 10965 10965 10966 10966 10967 10968 10969 10967 10965 10965 10965 10965 10965 10964 10963 10963 10964 10963 10963 10963 10964 10964 10963 10963 10962 10961 10960 10960 10959 10958 10957 10956 10956 10955 10955 10954 10953 10952 10951 10950 10950 10949 10949 10948 10948 10947 10945 10943 10941 10939 10939 10938 10938 10937 10937 10936 10935 10934 10932 10931 10929 10928 10927
10955 10956 10957 10958 10959 10960 10962 10963 10964 10964 10961 10958 10956 10957 10959 10960 10960 10961 10960 10959 10958 10958 10957 10957 10956 10955 10956 10957 10957 10957 10957 10957 10957 10957 10957 10956 10954 10953 10953 10952 10951 10950 10949 10948 10947 10947 10946 10945 10944 10943 10942 10942 10942 10942 10941 10940 10939 10939 10938 10936 10933 10931 10930 10929 10928 10928 10928 10927 10926 10925 10923 10921 10920 10918
10947 10948 10949 10949 10949 10950 10952 10954 10954 10955 10953 10951 10949 10949 10950 10950 10951 10951 10951 10951 10951 10951 10948 10948 10948 10947 10948 10949 10950 10949 10949 10950 10950 10950 10950 10949 10947 10946 10945 10944 10943 10942 10940 10939 10939 10938 10938 10937 10936 10935 10934 10934 10934 10933 10933 10932 10931 10930 10930 10929 10927 10925 10923 10921 10919 10919 10918 10918 10917 10916 10915 10914 10912 10911
10938 10939 10940 10940 10940 10940 10941 10943 10944 10944 10941 10940 10940 10939 10940 10941 10941 10942 10941 10940 10941 10941 10939 10938 10939 10939 10939 10941 10942 10941 10941 10941 10942 10942 10942 10941 10939 10937 10936 10936 10934 10933 10931 10930 10929 10929 10928 10928 10927 10926 10925 10924 10924 10923 10923 10923 10923 10921 10920 10919 10918 10917 10915 10913 10911 10910 10908 10908 10907 10907 10906 10905 10904 10902
10929 10930 10930 10931 10931 10931 10931 10932 10934 10934 10933 10931 10929 10928 10928 10930 10931 10932 10932 10930 10930 10930 10929 10928 10929 10929 10929 10931 10932 10932 10932 10931 10931 10932 10933 10932 10931 10929 10927 10926 10925 10923 10922 10921 10919 10918 10917 10917 10917 10917 10916 10915 10914 10913 10912 10912 10912 10911 10910 10909 10907 10906 10904 10903 10902 10901 10899 10898 10897 10896 10895 10895 10894 10893
10920 10920 10920 10921 10921 10922 10922 10922 10923 10924 10925 10925 10923 10921 10920 10920 10921 10921 10922 10921 10920 10920 10920 10919 10919 10919 10918 10919 10920 10921 10921 10920 10919 10919 10920 10921 10921 10920 10918 10916 10915 10913 10912 10911 10910 10909 10908 10906 10906 10905 10906 10905 10904 10902 10901 10900 10900 10899 10899 10898 10896 10894 10892 10891 10890 10890 10889 10888 10886 10885 10884 10884 10884 10883
10910 10910 10910 10910 10910 10911 10913 10913 10913 10913 10913 10914 10914 10913 10911 10911 10912 10911 10911 10911 10911 10911 10910 10909 10909 10909 10908 10908 10908 10908 10908 10908 10908 10908 10908 10908 10908 10908 10907 10906 10905 10904 10902 10901 10899 10898 10897 10897 10895 10894 10894 10894 10893 10891 10890 10890 10889 10887 10886 10885 10884 10882 10880 10879 10877 10877 10876 10875 10874 10871 10870 10870 10871 10871
10898 10899 10900 10899 10899 10899 10901 10902 10903 10903 10902 10902 10902 10902 10901 10901 10901 10900 10901 10901 10901 10900 10899 10898 10898 10898 10897 10896 10896 10895 10895 10895 10895 10895 10894 10894 10895 10895 10895 10895 10894 10892 10891 10890 10888 10887 10886 10885 10884 10883 10883 10882 10881 10879 10877 10878 10877 10876 10874 10872 10870 10869 10867 10866 10864 10863 10862 10861 10860 10857 10855 10853 10854 10855
10886 10887 10888 10889 10888 10888 10889 10890 10890 10890 10891 10890 10891 10891 10890 10890 10890 10889 10889 10889 10888 10888 10887 10886 10885 10884 10883 10882 10881 10881 10880 10880 10880 10880 10880 10879 10879 10880 10880 10880 10880 10879 10878 10877 10876 10874 10873 10872 10872 10871 10870 10869 10868 10866 10864 10864 10865 10864 10862 10859 10857 10856 10854 10852 10851 10850 10848 10847 10846 10844 10842 10839 10837 10837
10874 10875 10876 10877 10877 10877 10877 10878 10878 10879 10879 10879 10879 10879 10879 10879 10878 10877 10876 10875 10874 10874 10873 10871 10870 10870 10869 10869 10867 10866 10865 10864 10864 10864 10864 10864 10864 10864 10864 10864 10864 10864 10863 10863 10862 10860 10859 10858 10857 10857 10857 10855 10854 10853 10851 10850 10851 10852 10850 10846 10844 10843 10842 10840 10837 10835 10834 10833 10832 10830 10829 10826 10822 10820
10862 10862 10863 10864 10865 10865 10865 10865 10866 10866 10866 10866 10866 10867 10867 10866 10866 10865 10864 10863 10861 10860 10859 10858 10856 10854 10854 10853 10853 10852 10852 10851 10851 10850 10849 10848 10848 10848 10847 10847 10847 10847 10847 10847 10846 10845 10845 10844 10843 10842 10842 10840 10839 10837 10835 10834 10836 10838 10838 10835 10831 10830 10829 10827 10825 10822 10819 10818 10817 10816 10814 10811 10808 10805
10849 10850 10850 10851 10852 10853 10853 10853 10853 10853 10853 10853 10853 10853 10853 10852 10852 10852 10851 10850 10849 10848 10847 10846 10845 10843 10840 10838 10836 10835 10835 10835 10836 10836 10836 10835 10834 10833 10832 10832 10831 10831 10831 10831 10831 10830 10829 10828 10828 10827 10826 10825 10823 10821 10819 10816 10816 10818 10821 10821 10819 10816 10814 10813 10811 10808 10805 10803 10802 10800 10798 10796 10793 10790
10835 10836 10837 10837 10838 10839 10840 10841 10841 10841 10840 10840 10839 10839 10838 10837 10837 10837 10836 10836 10835 10834 10833 10832 10831 10830 10828 10826 10823 10821 10819 10818 10817 10817 10817 10817 10817 10817 10816 10815 10815 10814 10813 10814 10814 10814 10813 10812 10811 10811 10810 10809 10808 10806 10804 10801 10797 10796 10797 10799 10800 10799 10797 10795 10794 10792 10789 10786 10784 10782 10779 10777 10775 10773
10821 10822 10822 10823 10824 10825 10826 10826 10827 10828 10828 10827 10827 10826 10825 10823 10822 10821 10820 10819 10819 10819 10817 10816 10815 10813 10811 10810 10809 10808 10806 10804 10802 10800 10799 10798 10797 10796 10796 10796 10795 10794 10793 10793 10793 10793 10793 10793 10792 10792 10792 10791 10790 10788 10787 10785 10781 10778 10776 10776 10777 10777 10776 10775 10773 10772 10770 10768 10766 10763 10760 10757 10754 10752
10805 10806 10807 10808 10808 10809 10809 10810 10811 10812 10812 10813 10813 10812 10812 10810 10809 10807 10805 10804 10803 10802 10802 10801 10800 10798 10796 10794 10793 10792 10791 10790 10788 10786 10784 10783 10781 10779 10778 10778 10777 10776 10775 10774 10773 10773 10772 10772 10772 10772 10772 10771 10770 10769 10768 10766 10764 10761 10758 10757 10756 10756 10755 10753 10751 10750 10749 10748 10747 10745 10743 10740 10736 10733
10790 10790 10791 10791 10792 10792 10793 10793 10794 10794 10795 10795 10796 10796 10796 10795 10794 10792 10790 10788 10787 10786 10785 10784 10784 10783 10782 10780 10778 10777 10776 10774 10773 10772 10771 10769 10768 10766 10765 10764 10763 10762 10761 10760 10759 10758 10757 10757 10756 10756 10756 10755 10754 10752 10751 10750 10748 10746 10744 10742 10740 10739 10737 10735 10733 10731 10730 10730 10729 10728 10727 10725 10722 10718
10772 10773 10774 10774 10775 10776 10776 10777 10777 10777 10777 10777 10777 10777 10777 10777 10776 10775 10773 10772 10770 10769 10768 10767 10766 10766 10765 10764 10763 10761 10760 10759 10757 10756 10755 10754 10753 10752 10750 10749 10748 10747 10746 10745 10743 10742 10741 10741 10740 10739 10739 10738 10738 10736 10735 10734 10732 10731 10729 10727 10725 10722 10720 10718 10716 10714 10713 10711 10710 10708 10707 10706 10704 10701
10753 10754 10755 10756 10757 10758 10759 10759 10760 10760 10759 10759 10758 10758 10757 10757 10756 10755 10754 10753 10752 10751 10750 10749 10748 10748 10747 10746 10745 10744 10743 10741 10739 10738 10736 10735 10734 10733 10732 10731 10730 10729 10728 10726 10725 10723 10722 10722 10721 10720 10719 10718 10718 10716 10715 10714 10713 10711 10710 10708 10706 10704 10701 10699 10697 10695 10693 10691 10690 10687 10685 10684 10682 10680
10734 10735 10736 10737 10738 10739 10739 10740 10740 10740 10740 10740 10739 10738 10737 10736 10735 10734 10733 10732 10731 10731 10730 10730 10729 10728 10727 10726 10724 10723 10722 10721 10720 10718 10717 10715 10714 10713 10712 10711 10710 10709 10708 10706 10705 10703 10702 10701 10700 10699 10698 10698 10697 10695 10694 10692 10691 10690 10689 10687 10685 10683 10681 10679 10677 10674 10671 10669 10668 10666 10663 10661 10659 10656